Weather History for KMNE - December, 2012

Change the Weather History Date:

Tuesday, December 11, 2012

  Actual Average (KBAD) Record (KBAD)
Temperature  
Mean Temperature 40 °F -  
Max Temperature 50 °F 55 °F 78 °F (2007)
Min Temperature 29 °F 36 °F 24 °F (2000)
Degree Days  
Heating Degree Days 26    
Moisture  
Dew Point 25 °F    
Average Humidity 67    
Maximum Humidity 88    
Minimum Humidity 27    
Precipitation  
Precipitation 0.00 in - - ()
Sea Level Pressure  
Sea Level Pressure 30.18 in    
Wind  
Wind Speed 2 mph (NNE)    
Max Wind Speed 10 mph    
Max Gust Speed -    
Visibility 10 miles    
Events      
Averages and records for this station are not official NWS values.
T = Trace of Precipitation, MM = Missing Value Source: NWS Daily Summary

Daily Weather History Graph

Daily Weather History Graph

Search for Another Location

Airport or City:

Trip Planner

Search our weather history database for the weather conditions in past years. The results will help you decide how hot, cold, wet, or windy it might be!

Date:

Astronomy

Dec. 11, 2012 Rise Set
Actual Time 7:05 AM CST 5:07 PM CST
Civil Twilight 6:38 AM CST 5:35 PM CST
Nautical Twilight 6:07 AM CST 6:05 PM CST
Astronomical Twilight 5:37 AM CST 6:35 PM CST
Moon 5:04 AM CST (12/11) 3:45 PM CST (12/11)
Length of Visible Light 10h 56m
Length of Day
10h 02m
Waning Crescent, 4% of the Moon is Illuminated
Dec 11
Waning Crescent
Dec 13
New
Dec 19
First Quarter
Dec 28
Full
Jan 4
Last Quarter

Hourly Weather History & Observations

Time (CST) Temp. Windchill Dew Point Humidity Pressure Visibility Wind Dir Wind Speed Gust Speed Precip Events Conditions
12:15 AM 32.0 °F 28.7 °F 27.5 °F 83% 30.10 in 10.0 mi North 3.5 mph - N/A   Clear
12:35 AM 32.0 °F 28.7 °F 26.6 °F 80% 30.11 in 10.0 mi North 3.5 mph - N/A   Clear
12:55 AM 32.0 °F 27.5 °F 26.8 °F 81% 30.11 in 10.0 mi NNW 4.6 mph - N/A   Clear
1:15 AM 31.3 °F - 27.0 °F 84% 30.11 in 10.0 mi Calm Calm - N/A   Clear
1:35 AM 31.1 °F - 27.1 °F 85% 30.11 in 10.0 mi Calm Calm - N/A   Clear
1:55 AM 30.9 °F - 26.8 °F 85% 30.11 in 10.0 mi Calm Calm - N/A   Clear
2:35 AM 30.2 °F - 26.6 °F 86% 30.10 in 10.0 mi Calm Calm - N/A   Clear
2:55 AM 30.2 °F - 25.5 °F 83% 30.10 in 10.0 mi Calm Calm - N/A   Clear
3:15 AM 30.7 °F - 24.8 °F 79% 30.11 in 10.0 mi Calm Calm - N/A   Clear
3:35 AM 29.1 °F - 26.1 °F 88% 30.12 in 10.0 mi Calm Calm - N/A   Clear
3:55 AM 29.3 °F - 25.7 °F 86% 30.13 in 10.0 mi Calm Calm - N/A   Clear
4:15 AM 29.3 °F 25.6 °F 25.7 °F 86% 30.14 in 10.0 mi North 3.5 mph - N/A   Clear
4:35 AM 29.7 °F - 25.3 °F 84% 30.14 in 10.0 mi Calm Calm - N/A   Clear
4:55 AM 29.8 °F - 25.0 °F 82% 30.14 in 10.0 mi Calm Calm - N/A   Clear
5:15 AM 30.0 °F - 25.3 °F 83% 30.14 in 10.0 mi Calm Calm - N/A   Clear
5:35 AM 30.2 °F - 25.3 °F 82% 30.15 in 10.0 mi Calm Calm - N/A   Clear
5:55 AM 30.2 °F - 25.5 °F 83% 30.15 in 10.0 mi Calm Calm - N/A   Clear
6:15 AM 30.2 °F - 25.5 °F 83% 30.16 in 10.0 mi Calm Calm - N/A   Clear
6:35 AM 30.2 °F - 25.5 °F 83% 30.16 in 10.0 mi Calm Calm - N/A   Clear
6:55 AM 30.2 °F - 25.5 °F 83% 30.17 in 10.0 mi Calm Calm - N/A   Clear
7:15 AM 29.8 °F - 25.5 °F 84% 30.17 in 10.0 mi Calm Calm - N/A   Clear
7:55 AM 31.8 °F - 26.4 °F 80% 30.20 in 10.0 mi Calm Calm - N/A   Clear
8:15 AM 32.5 °F 28.1 °F 26.8 °F 79% 30.21 in 10.0 mi East 4.6 mph - N/A   Clear
8:35 AM 33.8 °F 30.8 °F 27.3 °F 77% 30.21 in 10.0 mi East 3.5 mph - N/A   Clear
8:55 AM 35.4 °F 31.5 °F 27.3 °F 72% 30.22 in 10.0 mi ENE 4.6 mph - N/A   Clear
9:15 AM 36.1 °F 32.3 °F 26.8 °F 69% 30.22 in 10.0 mi East 4.6 mph - N/A   Clear
9:55 AM 37.9 °F 33.5 °F 26.4 °F 63% 30.23 in 10.0 mi NE 5.8 mph - N/A   Clear
10:15 AM 40.1 °F 36.9 °F 27.1 °F 60% 30.23 in 10.0 mi East 4.6 mph - N/A   Clear
10:35 AM 39.9 °F 35.8 °F 24.8 °F 55% 30.23 in 10.0 mi NNE 5.8 mph - N/A   Clear
10:55 AM 41.4 °F 37.6 °F 24.3 °F 51% 30.22 in 10.0 mi ENE 5.8 mph - N/A   Clear
11:15 AM 41.4 °F 39.4 °F 25.0 °F 52% 30.22 in 10.0 mi NNE 3.5 mph - N/A   Clear
11:35 AM 43.7 °F 39.7 °F 25.9 °F 50% 30.22 in 10.0 mi North 6.9 mph - N/A   Clear
11:55 AM 43.3 °F 39.9 °F 24.4 °F 47% 30.20 in 10.0 mi North 5.8 mph - N/A   Clear
12:15 PM 44.8 °F 42.4 °F 24.6 °F 45% 30.19 in 10.0 mi North 4.6 mph - N/A   Clear
12:35 PM 46.4 °F 43.5 °F 23.2 °F 40% 30.17 in 10.0 mi NE 5.8 mph - N/A   Clear
12:55 PM 46.8 °F - 23.5 °F 40% 30.16 in 10.0 mi North 10.4 mph - N/A   Clear
1:15 PM 47.5 °F - 21.9 °F 36% 30.16 in 10.0 mi North 5.8 mph - N/A   Clear
1:35 PM 48.2 °F - 20.3 °F 33% 30.15 in 10.0 mi North 8.1 mph - N/A   Clear
1:55 PM 49.3 °F - 20.7 °F 32% 30.15 in 10.0 mi North 4.6 mph - N/A   Clear
2:15 PM 50.0 °F - 19.2 °F 30% 30.14 in 10.0 mi North 4.6 mph - N/A   Clear
2:35 PM 50.7 °F - 18.5 °F 28% 30.15 in 10.0 mi Calm Calm - N/A   Clear
2:55 PM 50.9 °F - 18.0 °F 27% 30.15 in 10.0 mi ENE 5.8 mph - N/A   Clear
3:15 PM 50.2 °F - 18.9 °F 29% 30.15 in 10.0 mi NE 3.5 mph - N/A   Clear
3:35 PM 50.2 °F - 18.9 °F 29% 30.15 in 10.0 mi Calm Calm - N/A   Clear
3:55 PM 50.0 °F - 17.8 °F 28% 30.16 in 10.0 mi North 5.8 mph - N/A   Clear
4:15 PM 49.3 °F - 17.8 °F 29% 30.16 in 10.0 mi NE 3.5 mph - N/A   Clear
4:35 PM 48.6 °F - 18.0 °F 30% 30.16 in 10.0 mi Calm Calm - N/A   Clear
4:55 PM 46.9 °F - 19.2 °F 33% 30.16 in 10.0 mi Calm Calm - N/A   Clear
5:15 PM 45.1 °F - 20.5 °F 38% 30.16 in 10.0 mi Calm Calm - N/A   Clear
5:35 PM 41.2 °F - 27.3 °F 58% 30.17 in 10.0 mi Calm Calm - N/A   Clear
5:55 PM 38.8 °F - 28.4 °F 66% 30.17 in 4.0 mi Calm Calm - N/A   Haze
6:15 PM 37.8 °F - 29.1 °F 71% 30.18 in 10.0 mi Calm Calm - N/A   Clear
6:35 PM 36.3 °F - 27.7 °F 71% 30.19 in 10.0 mi Calm Calm - N/A   Clear
7:15 PM 34.2 °F - 28.4 °F 79% 30.20 in 10.0 mi Calm Calm - N/A   Clear
7:35 PM 33.1 °F - 28.4 °F 83% 30.20 in 10.0 mi Calm Calm - N/A   Clear
7:55 PM 33.8 °F - 28.2 °F 80% 30.21 in 10.0 mi Calm Calm - N/A   Clear
8:15 PM 33.8 °F - 29.1 °F 83% 30.22 in 10.0 mi Calm Calm - N/A   Clear
8:35 PM 33.4 °F - 29.1 °F 84% 30.23 in 10.0 mi Calm Calm - N/A   Clear
8:55 PM 33.3 °F - 28.2 °F 82% 30.23 in 10.0 mi Calm Calm - N/A   Clear
9:35 PM 32.0 °F - 28.9 °F 88% 30.24 in 10.0 mi Calm Calm - N/A   Clear
9:55 PM 32.7 °F - 29.3 °F 87% 30.25 in 10.0 mi Calm Calm - N/A   Clear
10:15 PM 32.0 °F - 28.4 °F 87% 30.26 in 10.0 mi Calm Calm - N/A   Clear
10:35 PM 32.0 °F - 28.2 °F 86% 30.26 in 10.0 mi Calm Calm - N/A   Clear
10:55 PM 30.9 °F - 27.5 °F 87% 30.27 in 10.0 mi Calm Calm - N/A   Clear
11:15 PM 31.1 °F - 27.3 °F 86% 30.27 in 10.0 mi Calm Calm - N/A   Clear
11:35 PM 30.2 °F 26.7 °F 27.1 °F 88% 30.27 in 10.0 mi North 3.5 mph - N/A   Clear
11:55 PM 30.2 °F - 27.0 °F 88% 30.27 in 10.0 mi Calm Calm - N/A   Clear